Regional Weather Roundup
Issued by NWS

Home | Current Version | Previous Version | Graphics & Text | Print | Product List | Glossary Off
Versions: 1 2 3 4 5 6 7 8 9 10 11 12 13 14 15 16 17 18 19 20 21 22 23 24 25 26 27 28 29 30 31 32 33 34 35 36 37 38 39 40 41 42 43 44 45 46 47 48 49 50

000
ASUS43 KTOP 280608
RWRKS

WEATHER ROUNDUP FOR KANSAS
NATIONAL WEATHER SERVICE GOODLAND KS
100 AM CDT TUE MAR 28 2017

NOTE:  "FAIR" INDICATES FEW OR NO CLOUDS BELOW 12,000 FEET WITH NO
SIGNIFICANT WEATHER AND/OR OBSTRUCTIONS TO VISIBILITY.

KSZ001>006-013>018-027>032-041>047-280700-
NORTHWEST KANSAS

CITY           SKY/WX    TMP DP  RH WIND       PRES   REMARKS
GOODLAND       MOCLDY    47  41  80 SE13      29.91R
6HR MIN TEMP:  47; 6HR MAX TEMP:  62;

HAYS             N/A     42  41  96 E8        29.97F FOG
HILL CITY      PTCLDY    42  41  96 E8        29.97F
6HR MIN TEMP:  41; 6HR MAX TEMP:  60;

RUSSELL        PTCLDY    43  41  93 SE8       29.97F
6HR MIN TEMP:  41; 6HR MAX TEMP:  58;

$$

KSZ061>065-074>080-084>089-280700-
SOUTHWEST KANSAS

CITY           SKY/WX    TMP DP  RH WIND       PRES   REMARKS
DODGE CITY     CLOUDY    48  45  89 E9        29.93F
6HR MIN TEMP:  47; 6HR MAX TEMP:  63;

ELKHART          N/A     47  32  56 SE16        N/A
GARDEN CITY    MOCLDY    49  41  74 SE12      29.91S
6HR MIN TEMP:  47; 6HR MAX TEMP:  66;

GREAT BEND     PTCLDY    44  43  96 E5        29.98F FOG
LIBERAL        CLOUDY    54  37  54 SE16G23   29.91R
PRATT          PTCLDY    42  41  95 E6        29.96F FOG
6HR MIN TEMP:  42; 6HR MAX TEMP:  58;

$$

KSZ066>073-081>083-090>101-280700-
SOUTHEAST KANSAS

CITY           SKY/WX    TMP DP  RH WIND       PRES   REMARKS
CHANUTE        CLOUDY    52  46  80 N5        29.99F
6HR MIN TEMP:  52; 6HR MAX TEMP:  54;

COFFEYVILLE    CLOUDY    53  48  83 N6        29.99S
6HR MIN TEMP:  53; 6HR MAX TEMP:  56;

HUTCHINSON     CLOUDY    49  45  86 SE5       29.99S
6HR MIN TEMP:  49; 6HR MAX TEMP:  54;

MEDICINE LODGE   N/A     48  44  86 SE3       29.97R
NEWTON         CLOUDY    50  47  89 E3        29.99F
PARSONS        CLOUDY    53  47  79 N3        30.00S
6HR MIN TEMP:  53; 6HR MAX TEMP:  56;

WICHITA INTL   CLOUDY    52  46  80 E6        29.99R
6HR MIN TEMP:  52; 6HR MAX TEMP:  54;

WICHITA JABRA  CLOUDY    50  47  89 CALM      29.99R
6HR MIN TEMP:  50; 6HR MAX TEMP:  53;

WICHITA MCCONL CLOUDY    52  45  77 SE5       29.99S
WINFIELD       CLOUDY    52  46  80 E5        29.99S
6HR MIN TEMP:  52; 6HR MAX TEMP:  55;

$$

KSZ007>012-019>026-033>040-048>060-102>105-280700-
NORTHEAST KANSAS

CITY           SKY/WX    TMP DP  RH WIND       PRES   REMARKS
CONCORDIA      CLOUDY    47  45  93 NE3       30.00S
6HR MIN TEMP:  47; 6HR MAX TEMP:  53;

EMPORIA        CLOUDY    51  48  89 NE3       30.00S
6HR MIN TEMP:  51; 6HR MAX TEMP:  55;

LAWRENCE       CLOUDY    51  46  83 N5        30.02R
6HR MIN TEMP:  51; 6HR MAX TEMP:  56;

MANHATTAN      CLOUDY    51  46  83 NE5       30.01S
6HR MIN TEMP:  51; 6HR MAX TEMP:  55;

MARYSVILLE     CLOUDY    41  41 100 NE5       30.02S
OLATHE IND     CLOUDY    50  45  83 CALM      30.01R
6HR MIN TEMP:  49; 6HR MAX TEMP:  52;

OLATHE EXE     CLOUDY    50  46  86 N3        30.01R
6HR MIN TEMP:  49; 6HR MAX TEMP:  52;

SALINA         CLOUDY    53  46  77 E3        30.00S
6HR MIN TEMP:  53; 6HR MAX TEMP:  55;

TOPEKA BILLARD CLOUDY    51  46  83 CALM      30.02R
6HR MIN TEMP:  51; 6HR MAX TEMP:  55;

TOPEKA FORBES  CLOUDY    51  47  86 CALM      30.02R
6HR MIN TEMP:  51; 6HR MAX TEMP:  57;

$$




USA.gov is the U.S. government's official web portal to all federal, state and local government web resources and services.